NIMBUS 2 DEB, 26669

Orbit data source: Space-Track

NIMBUS 2 DEB, 26669 is space debris in SSO originally from a launch on Sun, 15 May 1966 UTC launched from the Air Force Western Test Range (AFWTR). Debris objects in space refer to the collection of defunct objects orbiting the Earth. Examples of debris include non-operational satellites, rocket bodies, and fragments generated from explosions, collisions, or faulty payload assembly.

Loading next visibility...
Identifier
26669, 1966-040J
Orbit
SSO
Country
Flag of USUS
Related business
Manufacturer
Unknown
Mission
Spacecraft
Bus & Motor
Unknown
Mass
Unknown
Launch date (UTC)
1966-05-15 (59 years ago)
Launch vehicle
Unknown
Launch site
Air Force Western Test Range (AFWTR)
Object type
Payload
Rocket body
Debris
Shape & HBR
Unknown shape, 0.1 m
Radar Cross Section
Small (<0.1 m²)

Expand to show TLE details & history
Last TLE update: 2 days ago

TLE from 2 days ago
0 NIMBUS 2 DEB
1 26669U 66040J   25288.84832537  .00006342  00000-0  55114-2 0  9993
2 26669 100.1413 311.9663 0036161  99.5816  78.1884 13.86122406255961
Epoch: 2025-10-15T20:21Z
TLE epoch observation values (Epoch: 2025-10-15T20:21:35.311Z)
Latitude
1.69227°
Longitude
162.25386°
Altitude
939.539 km
Speed
7.385 km/s
True Right ascension
08h 49m 04s
True Declination
1° 40' 57"
Sunlit
Object was in daylight at epoch
Visualization orbit readout
Latitude
Unknown
Longitude
Unknown
Altitude
Unknown
Speed
Unknown
Apparent Right ascension
Unknown
Apparent Declination
Unknown
Sunlit
N/A
Visualization observer readout
Local Sidereal Time
20:59:37
Azimuth
Unknown
Elevation
Unknown
Doppler factor
Unknown
Orbital elements
Apogee altitude
965.99 km
Perigee altitude
913.067 km
Semi-major axis
7,317.665 km
Eccentricity
0.00362
Inclination
100.1413°
RAAN
311.9663°
Arg. of periapsis
99.5816°
True anomaly
78.59437°
Mean anomaly
78.1884°
Eccentric anomaly
78.39135°
Mean motion
3.46724 °/min
Orbital period
103.83 mins
BSTAR
0.0055114
Loading maneuver chart data...
Computing Atmospheric mass density...
Loading historical data...
Loading historical data...
Loading historical data...
Loading historical data...
Loading historical data...
Loading historical data...
Loading historical data...

Documentation

Showing up to 5 results
|